Location: Ethel Rock
(53.4667°N, 4.5667°W)
Time: 05:14:23
(UTC+00:00)

PSLV R/B - Pass Details

Date: 24 October 2020
Orbit: 567 x 599 km, 98.2° (Epoch: 25 November)

Event Time Altitude Azimuth Distance (km) Brightness Sun altitude
Rises 05:28:07 0° 168° (SSE) 2,827 7.6 -14.6°
Reaches altitude 10° 05:30:16 10° 170° (S) 1,932 6.7 -14.3°
Maximum altitude 05:34:28 75° 255° (WSW) 626 3.9 -13.7°
Drops below altitude 10° 05:38:43 10° 342° (NNW) 1,954 6.4 -13.1°
Sets 05:40:54 0° 344° (NNW) 2,861 7.3 -12.7°
